DW1774 Weather Reports


Display with metric or nautical units.
time (UTC)temp
F
wind
direction
speed
MPH
gust
MPH
rain 1hr
in
rain 24hr
in
rain mn
in
humidity
%
barometer
mb
20260902170904 92 210 1.0 6.0 0.00 5.82 0.00 71 1014.7
20260902170404 92 239 2.0 10.0 0.00 5.82 0.00 72 1014.7
20260902165905 91 209 3.0 12.0 0.00 5.82 0.00 70 1014.8
20260902165404 91 232 3.0 12.0 0.00 5.82 0.00 71 1014.9
20260902163904 90 277 3.0 8.0 0.00 5.82 0.00 73 1015.1
20260902163404 90 257 4.0 8.0 0.00 5.82 0.00 73 1015.1
20260902162405 90 252 3.0 8.0 0.00 5.82 0.00 75 1015.1
20260902161905 90 192 2.0 8.0 0.00 5.82 0.00 76 1015.1
20260902161404 90 207 5.0 8.0 0.00 5.82 0.00 76 1015.1
20260902160904 89 262 2.0 9.0 0.00 5.82 0.00 77 1015.1
20260902160404 89 225 2.0 10.0 0.00 5.82 0.00 77 1015.1
20260902155404 89 217 2.0 5.0 0.00 5.82 0.00 78 1015.1
20260902154904 89 219 3.0 12.0 0.00 5.82 0.00 80 1015.0
20260902154404 89 240 3.0 12.0 0.00 5.82 0.00 79 1014.9
20260902153903 88 211 2.0 10.0 0.00 5.82 0.00 81 1014.8
20260902153404 87 254 1.0 6.0 0.00 5.82 0.00 83 1014.8
20260902152904 87 233 2.0 6.0 0.00 5.82 0.00 84 1014.9
20260902151905 86 237 3.0 6.0 0.00 5.82 0.00 85 1014.8
20260902151405 85 225 2.0 8.0 0.00 5.82 0.00 86 1014.8
20260902150905 85 187 2.0 8.0 0.00 5.82 0.00 86 1014.8
20260902150404 85 208 1.0 6.0 0.00 5.82 0.00 87 1014.7
20260902145904 84 232 1.0 6.0 0.00 5.82 0.00 87 1014.7
20260902145404 84 215 1.0 5.0 0.00 5.82 0.00 87 1014.7
20260902144904 84 189 2.0 5.0 0.00 5.82 0.00 87 1014.7
20260902142905 82 202 0.0 0.0 0.00 5.82 0.00 87 1014.5
20260902142404 82 202 0.0 0.0 0.00 5.82 0.00 87 1014.5
20260902141903 82 202 0.0 1.0 0.00 5.82 0.00 87 1014.5
20260902141403 82 202 0.0 2.0 0.00 5.82 0.00 87 1014.6
20260902140904 82 201 0.0 3.0 0.00 5.82 0.00 87 1014.5
20260902140404 81 200 2.0 3.0 0.00 5.82 0.00 87 1014.6
20260902135905 81 196 0.0 3.0 0.00 5.82 0.00 87 1014.6
20260902135405 81 194 0.0 0.0 0.00 5.82 0.00 87 1014.6
20260902134903 81 194 0.0 0.0 0.00 5.82 0.00 87 1014.6
20260902134404 81 194 0.0 0.0 0.00 5.82 0.00 87 1014.6
20260902133905 81 194 0.0 3.0 0.00 5.82 0.00 87 1014.6
20260902133403 80 194 0.0 3.0 0.00 5.82 0.00 87 1014.5
20260902132904 80 194 1.0 3.0 0.00 5.82 0.00 87 1014.6
20260902132404 80 192 0.0 0.0 0.00 5.82 0.00 87 1014.6
20260902131905 80 192 0.0 3.0 0.00 5.82 0.00 87 1014.5
20260902131404 80 192 0.0 3.0 0.00 5.82 0.00 87 1014.5
20260902130904 80 190 1.0 3.0 0.00 5.82 0.00 87 1014.3
20260902130404 80 201 0.0 5.0 0.00 5.82 0.00 87 1014.1
20260902125904 80 213 1.0 5.0 0.00 5.82 0.00 87 1014.0
20260902125404 80 200 1.0 6.0 0.00 5.82 0.00 87 1014.1
20260902124404 80 172 2.0 6.0 0.00 5.82 0.00 87 1014.0
20260902122903 80 185 1.0 6.0 0.00 5.82 0.00 88 1013.8
20260902122404 80 201 2.0 6.0 0.00 5.82 0.00 89 1013.6
20260902121904 80 192 1.0 12.0 0.00 5.82 0.00 90 1013.6
20260902120904 80 172 6.0 12.0 0.00 5.82 0.00 91 1013.5
20260902115904 80 169 2.0 8.0 0.00 5.82 0.00 92 1013.6
20260902115404 80 192 5.0 8.0 0.00 5.82 0.00 92 1013.5
20260902114904 80 218 2.0 3.0 0.00 5.82 0.00 92 1013.2
20260902114405 80 218 1.0 3.0 0.00 5.82 0.00 92 1013.3
20260902113903 80 218 0.0 2.0 0.00 5.82 0.00 92 1013.3
20260902113403 80 218 1.0 3.0 0.00 5.82 0.00 92 1013.2
20260902112404 80 221 0.0 6.0 0.00 5.82 0.00 92 1013.2
20260902111904 80 192 1.0 5.0 0.00 5.82 0.00 91 1013.2
20260902111404 80 187 1.0 5.0 0.00 5.82 0.00 91 1013.1
20260902110904 80 186 1.0 7.0 0.00 5.82 0.00 91 1013.1
20260902110404 80 204 2.0 7.0 0.00 5.82 0.00 91 1013.0
20260902105903 80 209 3.0 5.0 0.00 5.82 0.00 91 1013.0
20260902105404 80 211 1.0 5.0 0.00 5.82 0.00 91 1013.1
20260902104905 80 190 1.0 3.0 0.00 5.82 0.00 91 1013.1
20260902104405 80 186 1.0 3.0 0.00 5.82 0.00 91 1013.0
20260902103903 80 184 1.0 2.0 0.00 5.82 0.00 91 1013.2
20260902103404 80 190 0.0 2.0 0.00 5.82 0.00 91 1013.2
20260902102904 80 190 0.0 3.0 0.00 5.82 0.00 91 1013.2
20260902102404 80 190 1.0 5.0 0.00 5.82 0.00 91 1013.1
20260902101904 80 190 2.0 5.0 0.00 5.82 0.00 91 1013.1
20260902101404 80 207 1.0 6.0 0.00 5.82 0.00 91 1013.1
20260902100904 80 186 1.0 6.0 0.00 5.82 0.00 91 1013.0
20260902100405 80 201 2.0 6.0 0.00 5.82 0.00 91 1012.9
20260902095904 80 185 1.0 6.0 0.00 5.82 0.00 91 1012.8
20260902094904 80 203 3.0 6.0 0.00 5.82 0.00 91 1012.8
20260902094403 80 174 2.0 3.0 0.00 5.82 0.00 91 1012.9
20260902093904 80 175 1.0 3.0 0.00 5.82 0.00 91 1012.9
20260902093404 80 198 1.0 3.0 0.00 5.82 0.00 91 1013.0
20260902092904 80 183 1.0 5.0 0.00 5.82 0.00 91 1012.9
20260902091903 80 210 3.0 6.0 0.00 5.82 0.00 91 1012.8
20260902091404 80 208 1.0 6.0 0.00 5.82 0.00 90 1012.8
20260902090404 80 195 1.0 5.0 0.00 5.82 0.00 90 1012.6
20260902085904 80 217 1.0 5.0 0.00 5.82 0.00 90 1012.6
20260902084904 80 179 0.0 7.0 0.00 5.82 0.00 90 1012.7
20260902084404 80 212 1.0 7.0 0.00 5.82 0.00 90 1012.7
20260902083903 80 214 2.0 5.0 0.00 5.82 0.00 90 1012.7
20260902083405 80 180 2.0 5.0 0.00 5.82 0.00 90 1012.8
20260902082405 80 213 2.0 5.0 0.00 5.82 0.00 90 1012.7
20260902081903 80 234 1.0 5.0 0.00 5.82 0.00 90 1012.7
20260902081404 80 212 1.0 6.0 0.00 5.82 0.00 90 1012.8
20260902080904 80 214 2.0 6.0 0.00 5.82 0.00 90 1012.9
20260902080405 80 216 2.0 7.0 0.00 5.82 0.00 90 1013.0
20260902075904 80 212 2.0 7.0 0.00 5.82 0.00 90 1013.1
20260902075404 80 249 0.0 6.0 0.00 5.82 0.00 90 1013.0
20260902074903 81 249 0.0 6.0 0.00 5.82 0.00 90 1012.9
20260902074404 81 183 1.0 5.0 0.00 5.82 0.00 90 1013.0
20260902073904 81 192 0.0 8.0 0.00 5.82 0.00 90 1012.9
20260902073403 81 217 3.0 8.0 0.00 5.82 0.00 89 1012.9
20260902072904 81 172 3.0 8.0 0.00 5.82 0.00 89 1012.9
20260902072404 81 184 2.0 6.0 0.00 5.82 0.00 89 1012.9
20260902071903 81 233 1.0 6.0 0.00 5.82 0.00 89 1013.0
20260902071404 81 198 2.0 6.0 0.00 5.82 0.00 89 1013.1
20260902070404 81 213 1.0 3.0 0.00 5.82 0.00 89 1013.0
20260902065904 81 179 1.0 5.0 0.00 5.82 0.00 89 1013.0
20260902065404 81 178 1.0 6.0 0.00 5.82 0.00 89 1012.9
20260902064905 81 213 2.0 9.0 0.00 5.82 0.00 89 1012.8
20260902064404 81 204 4.0 9.0 0.00 5.82 0.00 89 1012.9
20260902063903 81 190 3.0 7.0 0.00 5.82 0.00 89 1012.9
20260902063404 81 231 2.0 6.0 0.00 5.82 0.00 89 1012.9
20260902062903 81 221 2.0 5.0 0.00 5.82 0.00 89 1012.9
20260902062404 81 172 2.0 7.0 0.00 5.82 0.00 88 1012.9
20260902061904 81 204 1.0 7.0 0.00 5.82 0.00 88 1012.9
20260902061404 81 176 2.0 8.0 0.00 5.82 0.00 88 1012.8
20260902060904 81 162 3.0 8.0 0.00 5.82 0.00 88 1012.8
20260902060404 81 209 7.0 7.0 0.00 5.82 0.00 88 1012.7
20260902055905 81 160 2.0 5.0 0.15 5.82 0.00 88 1012.8
20260902055403 81 215 2.0 5.0 0.63 5.82 0.00 88 1012.9
20260902054905 81 226 1.0 7.0 1.08 5.82 0.00 88 1012.9
20260902054404 81 224 1.0 7.0 1.56 5.82 0.00 88 1012.7
20260902053405 81 204 2.0 5.0 2.64 5.82 0.00 88 1012.7
20260902052903 81 227 3.0 5.0 3.21 5.82 0.00 88 1012.8
20260902052405 81 234 0.0 3.0 3.63 5.82 0.00 88 1012.8
20260902051904 80 241 2.0 6.0 4.11 5.82 0.00 87 1012.9
20260902051405 80 214 1.0 6.0 4.59 5.82 0.00 87 1012.9
20260902050905 80 212 1.0 6.0 4.95 5.82 0.00 87 1013.0
20260902045904 80 209 0.0 1.0 5.85 5.82 5.82 87 1013.1
20260902045403 80 209 0.0 2.0 5.67 5.76 5.76 86 1013.1
20260902044904 80 209 0.0 2.0 5.85 5.72 5.72 86 1013.1
20260902044403 80 209 0.0 2.0 5.88 5.67 5.67 86 1013.0
20260902043904 80 206 0.0 0.0 5.82 5.61 5.61 86 1013.0
20260902043404 80 206 0.0 0.0 5.94 5.57 5.57 86 1013.0
20260902042903 80 206 0.0 0.0 5.79 5.50 5.50 86 1013.0
20260902042404 80 206 0.0 0.0 5.94 5.46 5.46 86 1013.0
20260902041904 80 206 0.0 0.0 6.06 5.42 5.42 86 1013.0
20260902041404 80 206 0.0 0.0 5.97 5.36 5.36 86 1013.1
20260902040903 80 206 0.0 0.0 6.12 5.32 5.32 86 1013.0
20260902040404 80 206 0.0 0.0 6.27 5.29 5.29 86 1013.1
20260902035904 80 206 0.0 0.0 6.24 5.23 5.23 86 1013.0
20260902035404 80 206 0.0 0.0 6.42 5.19 5.19 86 1013.0
20260902034904 80 206 0.0 0.0 6.18 5.13 5.13 86 1013.1
20260902034403 80 206 0.0 0.0 6.45 5.08 5.08 86 1013.1
20260902033904 80 206 0.0 0.0 6.36 5.03 5.03 86 1013.1
20260902033404 80 206 0.0 0.0 6.42 4.97 4.97 86 1013.2
20260902032404 80 206 0.0 0.0 6.33 4.87 4.87 86 1013.2
20260902031404 80 206 0.0 0.0 6.48 4.76 4.76 86 1012.9
20260902030904 80 206 0.0 2.0 6.39 4.71 4.71 86 1012.9
20260902030404 80 206 0.0 2.0 6.33 4.66 4.66 86 1012.7
20260902025903 80 235 0.0 0.0 6.54 4.61 4.61 86 1012.7
20260902025404 80 235 0.0 0.0 6.57 4.55 4.55 86 1012.5
20260902024904 80 235 0.0 0.0 6.66 4.51 4.51 86 1012.5
20260902024404 80 235 0.0 0.0 6.54 4.44 4.44 86 1012.4
20260902023405 80 235 0.0 2.0 6.48 4.33 4.33 86 1012.3
20260902022904 80 235 0.0 2.0 6.33 4.28 4.28 86 1012.3
20260902021904 80 235 1.0 3.0 6.24 4.17 4.17 86 1012.2
20260902021403 80 238 1.0 2.0 6.12 4.12 4.12 86 1012.1
20260902020904 80 238 0.0 3.0 6.15 4.07 4.07 86 1012.0
20260902020404 80 238 1.0 3.0 6.18 4.03 4.03 86 1011.9
20260902015905 80 274 1.0 3.0 6.06 3.95 3.95 86 1012.0
20260902015405 80 275 1.0 3.0 6.06 3.89 3.89 86 1012.0
20260902014904 80 275 1.0 2.0 6.03 3.85 3.85 86 1011.9
20260902013904 80 277 0.0 1.0 5.97 3.73 3.73 86 1011.7
20260902013404 80 277 0.0 1.0 5.97 3.68 3.68 86 1011.7
20260902012903 80 341 0.0 0.0 6.00 3.64 3.64 85 1011.7
20260902011404 81 341 0.0 0.0 6.30 3.50 3.50 85 1011.5
20260902010904 81 341 0.0 0.0 6.30 3.46 3.46 85 1011.4
20260902010404 81 341 0.0 0.0 6.42 3.41 3.41 84 1011.5
20260902005904 81 341 0.0 0.0 6.45 3.35 3.35 84 1011.5
20260902005404 81 341 0.0 0.0 6.27 3.29 3.29 84 1011.5
20260902004403 81 341 0.0 0.0 6.54 3.19 3.19 84 1011.6
20260902003904 81 341 0.0 0.0 6.54 3.13 3.13 84 1011.6
20260902003403 81 341 0.0 0.0 6.72 3.09 3.09 84 1011.7
20260902002904 81 341 0.0 0.0 6.93 3.04 3.04 84 1011.8
20260902002405 81 341 0.0 1.0 7.05 3.00 3.00 83 1011.9
20260902001904 81 341 0.0 1.0 7.02 2.94 2.94 83 1011.9
20260902001404 82 341 0.0 2.0 6.96 2.87 2.87 83 1011.9
20260901235904 82 341 1.0 3.0 6.84 2.70 2.70 83 1011.9
20260901234903 82 340 1.0 3.0 6.84 2.60 2.60 82 1011.8
20260901234404 82 339 1.0 5.0 6.57 2.54 2.54 82 1011.8
20260901233904 82 339 1.0 8.0 6.45 2.48 2.48 82 1011.8
20260901233404 82 352 3.0 8.0 6.30 2.41 2.41 82 1011.8
20260901232904 82 318 3.0 5.0 6.27 2.35 2.35 83 1011.8
20260901232403 82 325 2.0 5.0 6.21 2.29 2.29 83 1011.8
20260901231905 82 279 2.0 5.0 6.36 2.24 2.24 83 1011.9
20260901231404 82 330 1.0 5.0 6.24 2.18 2.18 84 1011.9
20260901230904 82 302 1.0 5.0 6.30 2.12 2.12 84 1012.0
20260901230404 83 346 1.0 7.0 6.24 2.07 2.07 84 1012.0
20260901225904 83 308 2.0 7.0 6.33 2.02 2.02 84 1012.1
20260901225404 83 329 2.0 5.0 6.24 1.97 1.97 85 1012.2
20260901224904 83 328 0.0 5.0 6.27 1.92 1.92 86 1012.2
20260901224404 83 332 0.0 3.0 6.51 1.88 1.88 85 1012.2
20260901223905 83 333 1.0 6.0 6.57 1.84 1.84 85 1012.3
20260901223405 83 315 3.0 6.0 6.48 1.78 1.78 84 1012.3
20260901222904 83 352 2.0 12.0 6.24 1.72 1.72 84 1012.3
20260901221904 84 345 4.0 10.0 5.79 1.60 1.60 83 1012.3
20260901221404 84 311 2.0 6.0 5.61 1.55 1.55 82 1012.2
20260901220904 84 333 3.0 5.0 5.42 1.49 1.49 82 1012.1
20260901220403 85 247 0.0 5.0 5.30 1.44 1.44 82 1012.0
20260901215904 85 246 0.0 0.0 5.13 1.39 1.39 83 1012.0
20260901214404 86 246 0.0 0.0 4.61 1.23 1.23 84 1012.1
20260901213904 86 246 0.0 0.0 4.28 1.18 1.18 83 1012.2
20260901213404 86 246 0.0 0.0 4.28 1.14 1.14 82 1012.3
20260901212405 86 246 0.0 0.0 4.28 1.06 1.06 80 1012.7
20260901211404 86 246 0.0 0.0 4.24 9.97 9.97 80 1012.9
20260901210904 86 246 0.0 0.0 4.16 9.53 9.53 79 1012.9
20260901210404 86 246 0.0 0.0 4.10 9.17 9.17 79 1012.8
20260901205904 86 246 0.0 0.0 4.08 8.77 8.77 79 1012.7
20260901205404 86 246 0.0 2.0 4.12 8.45 8.45 79 1012.6
20260901204903 86 246 0.0 2.0 4.06 8.11 8.11 80 1012.6
20260901204405 85 240 0.0 1.0 4.00 7.73 7.73 79 1012.4
20260901202904 85 288 0.0 2.0 4.12 6.79 6.79 80 1012.3
20260901202404 85 206 0.0 5.0 4.08 6.39 6.39 80 1012.3
20260901201404 84 231 2.0 5.0 4.01 5.73 5.73 82 1012.6
20260901200905 84 275 1.0 5.0 3.82 5.37 5.37 82 1012.7
20260901200404 84 279 0.0 2.0 3.72 5.07 5.07 83 1012.9
20260901195904 84 279 1.0 2.0 3.55 4.69 4.69 83 1013.1
20260901194904 84 279 0.0 2.0 3.32 4.05 4.05 83 1013.3
20260901194404 84 279 1.0 3.0 3.18 3.73 3.73 83 1013.4
20260901193904 84 281 0.0 3.0 2.96 3.33 3.33 83 1013.5
20260901193405 84 236 0.0 2.0 2.82 3.01 3.01 83 1013.5
20260901192904 84 219 1.0 2.0 2.66 2.67 2.67 85 1013.6
20260901192404 84 294 0.0 0.0 2.31 2.31 2.31 85 1013.5
20260901191904 84 294 0.0 1.0 2.03 2.03 2.03 85 1013.6
20260901191404 84 294 0.0 1.0 1.72 1.72 1.72 85 1013.7
20260901190904 84 295 0.0 1.0 1.55 1.55 1.55 85 1013.7
20260901190403 84 295 0.0 0.0 1.35 1.35 1.35 85 1013.8
20260901184904 84 296 0.0 1.0 0.73 0.73 0.73 85 1014.0
20260901184404 84 296 0.0 2.0 0.55 0.56 0.55 84 1014.1
20260901183404 85 296 0.0 3.0 0.19 0.20 0.19 83 1014.1
20260901182903 84 296 0.0 3.0 0.01 0.02 0.01 82 1014.1
20260901182404 84 286 1.0 3.0 0.00 0.01 0.00 82 1014.1
20260901181904 84 300 2.0 3.0 0.00 0.01 0.00 81 1014.1
20260901181404 84 304 1.0 2.0 0.00 0.01 0.00 81 1014.1
20260901180904 85 337 0.0 2.0 0.00 0.01 0.00 81 1014.1
20260901180404 85 348 0.0 3.0 0.00 0.01 0.00 82 1014.1
20260901175903 84 348 0.0 3.0 0.00 0.01 0.00 82 1014.2
20260901175404 85 307 0.0 3.0 0.00 0.01 0.00 83 1014.3
20260901174904 84 308 1.0 5.0 0.00 0.01 0.00 82 1014.4
20260901174404 84 308 2.0 5.0 0.00 0.01 0.00 82 1014.5
20260901173904 85 313 2.0 6.0 0.00 0.01 0.00 82 1014.7
20260901173404 85 325 1.0 6.0 0.00 0.01 0.00 82 1014.7
20260901172904 85 322 2.0 6.0 0.00 0.01 0.00 82 1014.8
20260901172405 85 342 1.0 3.0 0.00 0.01 0.00 81 1014.9
20260901171904 85 342 2.0 3.0 0.00 0.01 0.00 81 1015.0
20260901171404 85 18 2.0 3.0 0.00 0.01 0.00 80 1015.2